DW1234 Weather Reports


time (UTC)temp
F
wind
direction
speed
knots
gust
knots
rain 1hr
in
rain 24hr
in
rain mn
in
humidity
%
barometer
mb
20260502152247 56 244 6.1 9.6 0.00 0.00 0.00 43 1022.6
20260502151730 56 211 5.2 9.6 0.00 0.00 0.00 42 1022.6
20260502151609 56 219 4.3 9.6 0.00 0.00 0.00 44 1022.9
20260502151502 56 244 5.2 9.6 0.00 0.00 0.00 44 1023.0
20260502151246 56 239 6.1 10.4 0.00 0.00 0.00 47 1022.5
20260502150728 55 291 7.0 9.6 0.00 0.00 0.00 43 1022.5
20260502150239 56 214 6.1 8.7 0.00 0.00 0.00 45 1022.5
20260502130746 41 227 0.0 1.7 0.00 0.00 0.00 75 1022.7
20260502130232 40 227 0.9 2.6 0.00 0.00 0.00 74 1022.7
20260502123732 37 227 0.9 2.6 0.00 0.00 0.00 75 1022.6
20260502123243 37 227 1.7 2.6 0.00 0.00 0.00 75 1022.6
20260502123025 36 227 0.9 2.6 0.00 0.00 0.00 75 1023.0
20260502122726 37 227 1.7 2.6 0.00 0.00 0.00 75 1022.6
20260502122240 36 227 1.7 3.5 0.00 0.00 0.00 74 1022.6
20260502121751 36 227 2.6 3.5 0.00 0.00 0.00 74 1022.6
20260502121523 36 227 1.7 3.5 0.00 0.00 0.00 74 1023.0
20260502121229 36 227 2.6 3.5 0.00 0.00 0.00 73 1022.5
20260502120801 36 227 1.7 2.6 0.00 0.00 0.00 73 1022.5
20260502120224 36 227 1.7 2.6 0.00 0.00 0.00 74 1022.4
20260502115732 35 227 1.7 2.6 0.00 0.00 0.00 76 1022.3
20260502115244 35 227 1.7 3.5 0.00 0.00 0.00 76 1022.3
20260502114725 35 227 2.6 3.5 0.00 0.00 0.00 76 1022.3
20260502114509 34 227 1.7 2.6 0.00 0.00 0.00 76 1022.7
20260502114241 34 224 1.7 2.6 0.00 0.00 0.00 76 1022.3
20260502113724 34 224 2.6 3.5 0.00 0.00 0.00 76 1022.3
20260502113231 35 223 2.6 4.3 0.00 0.00 0.00 76 1022.2
20260502113024 34 223 1.7 4.3 0.00 0.00 0.00 76 1022.7
20260502112742 35 223 2.6 5.2 0.00 0.00 0.00 75 1022.3
20260502112224 35 229 3.5 5.2 0.00 0.00 0.00 75 1022.2
20260502111735 35 222 3.5 5.2 0.00 0.00 0.00 74 1022.2
20260502111532 35 219 3.5 4.3 0.00 0.00 0.00 74 1022.5
20260502111250 35 219 3.5 4.3 0.00 0.00 0.00 74 1022.0
20260502110731 36 219 3.5 4.3 0.00 0.00 0.00 74 1022.1
20260502110303 36 219 3.5 4.3 0.00 0.00 0.00 74 1022.2
20260502110059 35 201 2.6 3.5 0.00 0.00 0.00 74 1022.5
20260502110006 35 201 2.6 3.5 0.00 0.00 0.00 74 1022.4
20260502105721 36 200 2.6 3.5 0.00 0.00 0.00 75 1022.0
20260502105229 36 200 2.6 3.5 0.00 0.00 0.00 75 1022.0
20260502104801 37 200 1.7 3.5 0.00 0.00 0.00 74 1022.0
20260502104537 37 197 2.6 3.5 0.00 0.00 0.00 73 1022.4
20260502104223 37 200 2.6 4.3 0.00 0.00 0.00 72 1022.1
20260502103749 38 271 1.7 4.3 0.00 0.00 0.00 72 1022.2
20260502103233 38 276 2.6 4.3 0.00 0.00 0.00 71 1022.0
20260502103035 37 277 2.6 4.3 0.00 0.00 0.00 71 1022.4
20260502102745 38 300 3.5 4.3 0.00 0.00 0.00 71 1022.0
20260502102252 38 297 3.5 4.3 0.00 0.00 0.00 71 1021.9
20260502101743 38 300 1.7 3.5 0.00 0.00 0.00 71 1021.9
20260502101559 37 300 1.7 3.5 0.00 0.00 0.00 71 1022.3
20260502101230 38 327 2.6 3.5 0.00 0.00 0.00 71 1021.9
20260502100741 38 318 2.6 3.5 0.00 0.00 0.00 71 1021.8
20260502100224 38 324 2.6 3.5 0.00 0.00 0.00 71 1021.8
20260502091245 39 311 3.5 4.3 0.00 0.00 0.00 71 1021.7
20260502090727 39 311 2.6 4.3 0.00 0.00 0.00 71 1021.6
20260502090240 39 306 3.5 4.3 0.00 0.00 0.00 70 1021.6
20260502071534 42 338 2.6 3.5 0.00 0.00 0.00 56 1022.1
20260502071245 42 318 2.6 3.5 0.00 0.00 0.00 56 1021.8
20260502070734 42 318 2.6 3.5 0.00 0.00 0.00 56 1021.8
20260502070247 43 318 2.6 2.6 0.00 0.00 0.00 55 1021.8
20260502070017 42 318 1.7 3.5 0.00 0.00 0.00 54 1022.1
20260502065729 43 318 1.7 3.5 0.00 0.00 0.00 54 1021.8
20260502065300 43 318 1.7 3.5 0.00 0.00 0.00 54 1021.7
20260502064747 43 323 2.6 3.5 0.00 0.00 0.00 53 1021.8
20260502064556 42 323 1.7 3.5 0.00 0.00 0.00 53 1022.2
20260502064233 43 323 2.6 3.5 0.00 0.00 0.00 53 1021.8
20260502063743 43 323 2.6 3.5 0.00 0.00 0.00 53 1021.8
20260502063226 43 355 2.6 3.5 0.00 0.00 0.00 53 1021.8
20260502063006 42 355 1.7 2.6 0.00 0.00 0.00 53 1022.2
20260502062739 43 355 1.7 2.6 0.00 0.00 0.00 53 1021.8
20260502062248 43 355 1.7 2.6 0.00 0.00 0.00 52 1021.8
20260502061731 43 355 1.7 2.6 0.00 0.00 0.00 52 1021.8
20260502061507 42 355 0.9 2.6 0.00 0.00 0.00 52 1022.2
20260502061259 43 355 1.7 1.7 0.00 0.00 0.00 52 1021.8
20260502060749 43 355 1.7 1.7 0.00 0.00 0.00 51 1021.6
20260502060231 43 355 1.7 1.7 0.00 0.00 0.00 51 1021.6
20260502060052 42 355 0.9 1.7 0.00 0.00 0.00 51 1022.0
20260502055744 43 355 1.7 1.7 0.00 0.00 0.00 51 1021.6
20260502055227 43 355 1.7 1.7 0.00 0.00 0.00 51 1021.6
20260502054740 43 355 1.7 2.6 0.00 0.00 0.00 51 1021.5
20260502054559 42 355 0.9 2.6 0.00 0.00 0.00 51 1021.8
20260502054517 42 355 0.9 2.6 0.00 0.00 0.00 51 1021.8
20260502054226 43 355 1.7 2.6 0.00 0.00 0.00 51 1021.4
20260502053736 43 355 2.6 3.5 0.00 0.00 0.00 51 1021.4
20260502053304 43 355 2.6 2.6 0.00 0.00 0.00 51 1021.4
20260502053045 42 355 1.7 2.6 0.00 0.00 0.00 51 1021.8
20260502052727 43 355 2.6 2.6 0.00 0.00 0.00 51 1021.5
20260502052242 43 355 2.6 3.5 0.00 0.00 0.00 51 1021.4
20260502051737 43 355 2.6 3.5 0.00 0.00 0.00 50 1021.4
20260502051521 42 355 1.7 3.5 0.00 0.00 0.00 50 1021.8
20260502051257 43 355 2.6 3.5 0.00 0.00 0.00 50 1021.4
20260502050810 43 355 2.6 3.5 0.00 0.00 0.00 50 1021.4
20260502050243 43 355 2.6 3.5 0.00 0.00 0.00 49 1021.3
20260502050048 43 355 1.7 3.5 0.00 0.00 0.00 49 1021.7
20260502045801 43 355 2.6 3.5 0.00 0.00 0.00 50 1021.3
20260502045319 44 355 2.6 3.5 0.00 0.00 0.00 49 1021.3
20260502044722 44 355 1.7 2.6 0.00 0.00 0.00 49 1021.2
20260502044542 43 355 1.7 2.6 0.00 0.00 0.00 49 1021.5
20260502044235 44 355 1.7 2.6 0.00 0.00 0.00 49 1021.2
20260502043746 44 355 1.7 3.5 0.00 0.00 0.00 48 1021.2
20260502043225 44 355 1.7 3.5 0.00 0.00 0.00 48 1021.2
20260502043052 44 355 1.7 3.5 0.00 0.00 0.00 48 1021.5
20260502042736 45 355 2.6 3.5 0.00 0.00 0.00 48 1021.2
20260502042247 45 355 2.6 2.6 0.00 0.00 0.00 47 1021.3
20260502041739 45 355 2.6 3.5 0.00 0.00 0.00 47 1021.3
20260502041532 44 355 1.7 3.5 0.00 0.00 0.00 47 1021.6
20260502041223 45 355 2.6 3.5 0.00 0.00 0.00 47 1021.1
20260502040733 45 355 2.6 3.5 0.00 0.00 0.00 47 1021.2
20260502040245 45 341 2.6 3.5 0.00 0.00 0.00 47 1021.2
20260502040035 45 336 1.7 3.5 0.00 0.00 0.00 47 1021.5
20260502035724 46 349 2.6 3.5 0.00 0.00 0.00 46 1021.2
20260502035233 46 355 2.6 3.5 0.00 0.00 0.00 46 1021.2
20260502034745 46 355 2.6 3.5 0.00 0.00 0.00 46 1021.2
20260502034544 46 347 2.6 3.5 0.00 0.00 0.00 46 1021.5
20260502034230 46 347 3.5 3.5 0.00 0.00 0.00 46 1021.2
20260502033741 46 350 2.6 4.3 0.00 0.00 0.00 46 1021.2
20260502033226 46 346 2.6 4.3 0.00 0.00 0.00 46 1021.2
20260502033047 46 348 2.6 4.3 0.00 0.00 0.00 46 1021.5
20260502032758 47 344 2.6 4.3 0.00 0.00 0.00 46 1021.2
20260502032250 47 355 2.6 4.3 0.00 0.00 0.00 45 1021.0
20260502031729 47 349 2.6 4.3 0.00 0.00 0.00 45 1021.1
20260502031528 47 348 2.6 4.3 0.00 0.00 0.00 45 1021.4
20260502031243 47 348 3.5 4.3 0.00 0.00 0.00 45 1021.0
20260502030726 47 355 2.6 4.3 0.00 0.00 0.00 45 1021.0
20260502030238 48 350 3.5 4.3 0.00 0.00 0.00 44 1021.0
20260502030033 47 351 3.5 4.3 0.00 0.00 0.00 44 1021.3
20260502025750 48 355 3.5 4.3 0.00 0.00 0.00 44 1020.9
20260502025234 48 5 3.5 4.3 0.00 0.00 0.00 44 1020.8
20260502024747 48 355 3.5 4.3 0.00 0.00 0.00 44 1020.8
20260502024529 48 355 2.6 5.2 0.00 0.00 0.00 44 1021.1
20260502024233 49 355 3.5 5.2 0.00 0.00 0.00 43 1020.7
20260502023740 49 5 3.5 5.2 0.00 0.00 0.00 43 1020.6
20260502023224 49 360 4.3 7.0 0.00 0.00 0.00 43 1020.6
20260502023035 49 360 3.5 7.0 0.00 0.00 0.00 43 1020.9
20260502022735 49 355 4.3 7.8 0.00 0.00 0.00 43 1020.5
20260502022248 49 355 4.3 7.8 0.00 0.00 0.00 43 1020.5
20260502021731 50 360 4.3 7.8 0.00 0.00 0.00 43 1020.3
20260502021541 49 355 4.3 7.8 0.00 0.00 0.00 43 1020.7
20260502021246 50 9 5.2 9.6 0.00 0.00 0.00 42 1020.3
20260502020729 50 346 7.0 10.4 0.00 0.00 0.00 42 1020.3
20260502020240 50 355 7.8 10.4 0.00 0.00 0.00 42 1020.2
20260502020033 50 360 6.1 9.6 0.00 0.00 0.00 42 1020.6
20260502015725 51 355 6.1 9.6 0.00 0.00 0.00 41 1020.1
20260502015235 51 350 4.3 8.7 0.00 0.00 0.00 41 1020.0
20260502014747 51 355 5.2 8.7 0.00 0.00 0.00 41 1020.0
20260502014543 51 18 5.2 8.7 0.00 0.00 0.00 40 1020.3
20260502014232 51 360 5.2 8.7 0.00 0.00 0.00 40 1019.9
20260502013743 52 12 7.0 9.6 0.00 0.00 0.00 40 1019.8
20260502013223 52 22 5.2 9.6 0.00 0.00 0.00 39 1019.8
20260502013049 52 355 6.1 9.6 0.00 0.00 0.00 39 1020.1
20260502012733 52 350 6.1 8.7 0.00 0.00 0.00 39 1019.7
20260502012306 53 360 6.1 9.6 0.00 0.00 0.00 39 1019.7
20260502011722 53 355 7.0 11.3 0.00 0.00 0.00 38 1019.7
20260502011533 52 350 7.0 12.2 0.00 0.00 0.00 38 1019.9
20260502011235 53 355 7.8 13.9 0.00 0.00 0.00 38 1019.6
20260502010745 53 26 8.7 13.9 0.00 0.00 0.00 37 1019.5
20260502010230 54 341 8.7 13.9 0.00 0.00 0.00 37 1019.5
20260502010049 53 333 8.7 13.0 0.00 0.00 0.00 36 1019.7
20260502005740 54 344 10.4 13.0 0.00 0.00 0.00 36 1019.4
20260502005251 54 350 9.6 13.0 0.00 0.00 0.00 36 1019.4
20260502004734 55 10 7.8 14.8 0.00 0.00 0.00 35 1019.3
20260502004555 54 355 7.0 14.8 0.00 0.00 0.00 36 1019.6
20260502004247 55 355 11.3 14.8 0.00 0.00 0.00 36 1019.3
20260502003723 55 345 8.7 12.2 0.00 0.00 0.00 36 1019.3
20260502003234 55 344 6.1 15.6 0.00 0.00 0.00 35 1019.2
20260502003050 55 5 7.0 15.6 0.00 0.00 0.00 35 1019.5
20260502002807 56 341 9.6 15.6 0.00 0.00 0.00 34 1019.2
20260502002228 56 355 10.4 14.8 0.00 0.00 0.00 34 1019.1
20260502001739 56 321 11.3 14.8 0.00 0.00 0.00 34 1019.1
20260502001509 55 346 10.4 15.6 0.00 0.00 0.00 34 1019.5
20260502001227 56 338 10.4 20.9 0.00 0.00 0.00 34 1019.1
20260502000739 56 346 11.3 20.9 0.00 0.00 0.00 34 1019.1
20260502000248 57 355 11.3 16.5 0.00 0.00 0.00 34 1019.0
20260502000003 56 345 10.4 16.5 0.00 0.00 0.00 34 1019.4
20260501235731 57 348 11.3 16.5 0.00 0.00 0.00 33 1019.0
20260501235242 57 340 10.4 16.5 0.00 0.00 0.00 33 1019.0
20260501234728 57 5 12.2 16.5 0.00 0.00 0.00 33 1019.0
20260501234507 57 360 10.4 19.1 0.00 0.00 0.00 33 1019.4
20260501234238 57 327 10.4 20.9 0.00 0.00 0.00 33 1019.0
20260501233748 57 328 12.2 20.9 0.00 0.00 0.00 33 1019.0
20260501233233 57 341 13.0 17.4 0.00 0.00 0.00 33 1019.0
20260501233011 57 355 8.7 16.5 0.00 0.00 0.00 33 1019.3
20260501232747 57 347 9.6 18.2 0.00 0.00 0.00 33 1019.0
20260501232226 57 323 12.2 20.9 0.00 0.00 0.00 33 1019.0
20260501231737 58 342 13.9 20.9 0.00 0.00 0.00 34 1018.9
20260501231522 57 360 13.0 17.4 0.00 0.00 0.00 33 1019.2
20260501231222 57 355 12.2 17.4 0.00 0.00 0.00 33 1018.9
20260501230753 58 329 13.9 18.2 0.00 0.00 0.00 33 1018.9
20260501230245 58 5 13.0 20.0 0.00 0.00 0.00 33 1018.9
20260501230059 57 333 12.2 20.0 0.00 0.00 0.00 34 1019.2
20260501225729 58 350 12.2 19.1 0.00 0.00 0.00 35 1018.9
20260501225238 58 321 10.4 14.8 0.00 0.00 0.00 35 1018.8
20260501224723 58 332 9.6 21.7 0.00 0.00 0.00 35 1018.8
20260501224514 58 5 9.6 21.7 0.00 0.00 0.00 34 1019.2
20260501224233 58 338 10.4 21.7 0.00 0.00 0.00 33 1018.8
20260501223746 59 321 9.6 15.6 0.00 0.00 0.00 35 1018.8
20260501223231 59 349 10.4 18.2 0.00 0.00 0.00 34 1018.7
20260501223011 58 355 12.2 18.2 0.00 0.00 0.00 34 1019.1
20260501222743 59 348 11.3 18.2 0.00 0.00 0.00 34 1018.8
20260501222225 59 5 9.6 18.2 0.00 0.00 0.00 33 1018.8
20260501221737 59 18 11.3 19.1 0.00 0.00 0.00 32 1018.7
20260501221516 59 15 12.2 19.1 0.00 0.00 0.00 32 1019.1
20260501221251 59 347 13.0 18.2 0.00 0.00 0.00 33 1018.7
20260501220739 59 338 7.8 14.8 0.00 0.00 0.00 35 1018.7
20260501220223 60 348 8.7 17.4 0.00 0.00 0.00 34 1018.7
20260501220104 59 331 11.3 17.4 0.00 0.00 0.00 34 1019.0
20260501215735 60 316 9.6 17.4 0.00 0.00 0.00 33 1018.7
20260501215245 59 360 9.6 20.9 0.00 0.00 0.00 32 1018.7
20260501214730 60 332 13.9 20.9 0.00 0.00 0.00 32 1018.6
20260501214512 59 11 11.3 19.1 0.00 0.00 0.00 33 1019.0
20260501214245 60 290 8.7 17.4 0.00 0.00 0.00 34 1018.7
20260501213733 60 306 12.2 19.1 0.00 0.00 0.00 32 1018.9
20260501213243 61 328 11.3 13.9 0.00 0.00 0.00 33 1018.7
20260501213049 60 331 7.8 15.6 0.00 0.00 0.00 38 1019.0
20260501212722 60 5 9.6 17.4 0.00 0.00 0.00 34 1018.7
20260501212234 59 355 10.4 19.1 0.00 0.00 0.00 37 1018.7
20260501211747 60 341 13.0 19.1 0.00 0.00 0.00 35 1018.8
20260501211556 60 342 13.0 19.1 0.00 0.00 0.00 34 1019.0
20260501211234 61 345 7.0 16.5 0.00 0.00 0.00 37 1018.9
20260501210744 61 333 13.0 18.2 0.00 0.00 0.00 35 1018.8
20260501210227 60 5 8.7 18.2 0.00 0.00 0.00 36 1018.9
20260501210051 60 324 10.4 18.2 0.00 0.00 0.00 36 1019.2
20260501205759 61 313 8.7 16.5 0.00 0.00 0.00 37 1018.9
20260501205243 60 331 8.7 16.5 0.00 0.00 0.00 42 1019.0
20260501204734 59 355 8.7 18.2 0.00 0.00 0.00 41 1019.0
20260501204514 59 19 13.0 18.2 0.00 0.00 0.00 37 1019.3
20260501204248 60 36 12.2 18.2 0.00 0.00 0.00 37 1019.2
20260501203730 60 289 9.6 16.5 0.00 0.00 0.00 41 1019.1
20260501203241 61 309 10.4 18.2 0.00 0.00 0.00 38 1019.2
20260501203016 60 355 10.4 18.2 0.00 0.00 0.00 38 1019.6
20260501202726 60 329 9.6 18.2 0.00 0.00 0.00 39 1019.2
20260501202258 61 296 10.4 14.8 0.00 0.00 0.00 41 1019.2
20260501201721 61 331 5.2 15.6 0.00 0.00 0.00 39 1019.2
20260501201601 60 308 5.2 17.4 0.00 0.00 0.00 42 1019.6
20260501201230 61 342 11.3 17.4 0.00 0.00 0.00 38 1019.4
20260501200743 61 341 9.6 17.4 0.00 0.00 0.00 41 1019.3
20260501200227 61 281 9.6 15.6 0.00 0.00 0.00 39 1019.4
20260501200008 61 350 10.4 15.6 0.00 0.00 0.00 45 1019.7
20260501195739 61 345 11.3 15.6 0.00 0.00 0.00 41 1019.4
20260501195223 59 360 7.8 19.1 0.00 0.00 0.00 44 1019.3
20260501194734 60 323 13.9 19.1 0.00 0.00 0.00 39 1019.4
20260501194525 61 335 9.6 15.6 0.00 0.00 0.00 41 1019.6
20260501194249 62 15 10.4 15.6 0.00 0.00 0.00 44 1019.3
20260501193733 61 17 7.0 17.4 0.00 0.00 0.00 42 1019.3
20260501193242 60 325 10.4 17.4 0.00 0.00 0.00 41 1019.3
20260501193115 59 340 12.2 17.4 0.00 0.00 0.00 39 1019.7
20260501193007 59 327 12.2 17.4 0.00 0.00 0.00 39 1019.6
20260501192725 59 328 11.3 17.4 0.00 0.00 0.00 44 1019.3
20260501192237 60 5 12.2 17.4 0.00 0.00 0.00 42 1019.3
20260501191748 61 355 8.7 17.4 0.00 0.00 0.00 40 1019.4
20260501191518 61 285 9.6 17.4 0.00 0.00 0.00 43 1019.7
20260501191234 60 324 11.3 18.2 0.00 0.00 0.00 45 1019.4
20260501190745 60 314 10.4 18.2 0.00 0.00 0.00 44 1019.4
20260501190228 58 331 9.6 15.6 0.00 0.00 0.00 46 1019.4
20260501190019 58 311 10.4 15.6 0.00 0.00 0.00 42 1019.7
20260501185735 59 338 9.6 15.6 0.00 0.00 0.00 43 1019.3
20260501185247 59 339 10.4 20.9 0.00 0.00 0.00 46 1019.6
20260501184730 59 337 14.8 20.9 0.00 0.00 0.00 44 1019.4
20260501184528 59 348 7.8 19.1 0.00 0.00 0.00 45 1019.7
20260501184244 59 317 9.6 19.1 0.00 0.00 0.00 46 1019.3
20260501183725 58 323 12.2 19.1 0.00 0.00 0.00 45 1019.4
20260501183257 58 332 13.0 19.1 0.00 0.00 0.00 47 1019.5
20260501183007 57 355 12.2 17.4 0.00 0.00 0.00 47 1019.7
20260501182747 58 355 12.2 17.4 0.00 0.00 0.00 44 1019.5
20260501182230 60 344 8.7 18.2 0.00 0.00 0.00 45 1019.5
20260501181737 60 331 12.2 18.2 0.00 0.00 0.00 46 1019.5
20260501181508 59 328 7.0 18.2 0.00 0.00 0.00 51 1019.6
20260501181249 59 342 12.2 18.2 0.00 0.00 0.00 48 1019.6
20260501180731 59 355 8.7 14.8 0.00 0.00 0.00 47 1019.5
20260501180243 59 5 11.3 17.4 0.00 0.00 0.00 48 1019.6
20260501180012 58 350 9.6 17.4 0.00 0.00 0.00 48 1020.0
20260501175726 59 317 10.4 15.6 0.00 0.00 0.00 49 1019.6
20260501175240 58 327 12.2 18.2 0.00 0.00 0.00 49 1019.7
20260501174724 57 5 10.4 18.2 0.00 0.00 0.00 46 1019.7
20260501174525 58 346 12.2 18.2 0.00 0.00 0.00 46 1020.0
20260501174238 60 22 5.2 17.4 0.00 0.00 0.00 55 1019.7
20260501173724 58 355 12.2 20.0 0.00 0.00 0.00 49 1019.7
20260501173234 57 360 8.7 20.0 0.00 0.00 0.00 54 1019.7
20260501173058 56 360 13.0 20.0 0.00 0.00 0.00 51 1020.0
20260501172746 56 323 13.9 19.1 0.00 0.00 0.00 53 1019.7
20260501172231 55 344 12.2 17.4 0.00 0.00 0.00 52 1019.7
20260501171741 56 5 9.6 18.2 0.00 0.00 0.00 55 1019.8
20260501171558 55 342 12.2 18.2 0.00 0.00 0.00 50 1020.0
20260501171227 57 355 10.4 18.2 0.00 0.00 0.00 54 1019.7
20260501170737 57 338 8.7 15.6 0.00 0.00 0.00 56 1019.8
20260501170245 57 350 9.6 17.4 0.00 0.00 0.00 54 1019.7
20260501170052 56 349 10.4 17.4 0.00 0.00 0.00 55 1020.0
20260501165737 56 339 12.2 17.4 0.00 0.00 0.00 50 1019.8
20260501165309 57 329 11.3 18.2 0.00 0.00 0.00 52 1019.7
20260501164729 56 355 10.4 20.0 0.00 0.00 0.00 57 1019.7
20260501164530 55 321 8.7 20.0 0.00 0.00 0.00 55 1020.0
20260501164243 56 351 13.0 20.0 0.00 0.00 0.00 57 1019.7
20260501163720 57 360 9.6 19.1 0.00 0.00 0.00 56 1019.7
20260501163234 56 11 13.0 19.1 0.00 0.00 0.00 54 1019.5
20260501163033 57 347 10.4 18.2 0.00 0.00 0.00 53 1019.9
20260501162740 58 346 8.7 18.2 0.00 0.00 0.00 55 1019.6
20260501162223 56 343 12.2 18.2 0.00 0.00 0.00 54 1019.5
20260501161734 56 325 10.4 18.2 0.00 0.00 0.00 59 1019.5
20260501161537 55 327 12.2 18.2 0.00 0.00 0.00 58 1019.8
20260501161306 56 317 12.2 18.2 0.00 0.00 0.00 58 1019.5
20260501160726 55 348 13.9 17.4 0.00 0.00 0.00 56 1019.6
20260501160239 55 315 11.3 17.4 0.00 0.00 0.00 59 1019.5
20260501160013 54 355 10.4 17.4 0.00 0.00 0.00 57 1019.8
20260501155749 55 327 12.2 17.4 0.00 0.00 0.00 58 1019.5
20260501155235 55 12 13.0 17.4 0.00 0.00 0.00 57 1019.5
20260501154747 55 336 12.2 15.6 0.00 0.00 0.00 57 1019.5
20260501154604 54 360 10.4 15.6 0.00 0.00 0.00 59 1019.8
20260501154234 55 355 12.2 17.4 0.00 0.00 0.00 58 1019.4
20260501153744 54 355 10.4 17.4 0.00 0.00 0.00 58 1019.4
20260501153228 54 329 11.3 17.4 0.00 0.00 0.00 57 1019.4
20260501153058 53 321 11.3 17.4 0.00 0.00 0.00 57 1019.6
20260501152743 54 348 11.3 15.6 0.00 0.00 0.00 57 1019.3